Weather in Rybachje

Russia / Republic of Crimea     44°46′25″N   34°35′47″E
temp.,
°C
wind,
m/s
gust,
m/s
humid.,
%
clouds,
%
prec.,
mm/h
press.,
hPa
HPBL,
m
25 february, thu
thu2500:000se126724 0.0 1036180
03:000w117028 0.0 1036147
06:000w127546 0.0 1035183
09:00+1ssw227166 0.0 1036236
12:00+3s337189 0.0 1035334
15:00+4s337960 0.0 1034395
18:00+3s338958 0.0 1033238
21:00+3w228571 0.0 1033150
26 february, fri
fri2600:00+4nw228352 0.0 103298
03:00+4nnw238662 0.0 103284
06:00+4nw228868 0.0 103070
09:00+5wnw118664 0.0 103144
12:00+7s228053 0.0 1030253
15:00+7ssw128853 0.0 1028225
18:00+7wnw128916 0.0 102726
21:00+5wsw11908 0.0 102626
27 february, sat
sat2700:00+5wsw12890 0.0 102550
03:00+5wnw23830 0.0 102449
06:00+5wnw33810 0.0 102241
09:00+7wnw23800 0.0 102159
12:00+9ssw23810 0.0 1020338
15:00+9sw148112 0.0 1018443
18:00+8wnw238344 0.0 1017152
21:00+7nw348863 0.0 101799
28 february, sun
sun2800:00+6nw3490100 1.3 1017157
03:00+3nw689494 2.9 1017423
06:00+2nw6107761 0.1 1017912
09:00+2wnw588055 0.3 1019865
12:00+2wnw467888 0.2 1020693
15:00+3wnw457876 0.6 1020709
18:00+2nw357859 0.4 1021683
21:00+2nw358259 0.9 1023498
1 march, mon
mon100:00+1nnw468388 0.5 1025542
03:00+1nw468089 0.7 1026563
06:00+1nw347759 0.1 1027615
09:00+1nnw347571 0.3 1028584
12:00+2nnw336950 0.1 1030757
15:00+2nnw226867 0.1 1030794
18:00+1nnw237487 0.2 1031654
21:000n338091 0.4 1033520